Peru, IL

7:35 AM CDT on June 25, 2017 (GMT -0500)
Illinois Valley Regional-Duncan

Weather History for KVYS - December, 2010

Change the Weather History Date:

Wednesday, December 15, 2010

  Actual Average Record
Temperature  
Mean Temperature 11 °F -  
Max Temperature 22 °F 36 °F 66 °F (1975)
Min Temperature 0 °F 19 °F -16 °F (1989)
Degree Days  
Heating Degree Days 54    
Moisture  
Dew Point 5 °F    
Average Humidity 75    
Maximum Humidity 87    
Minimum Humidity 56    
Precipitation  
Precipitation 0.00 in - - ()
Sea Level Pressure  
Sea Level Pressure 30.05 in    
Wind  
Wind Speed 3 mph (East)    
Max Wind Speed 12 mph    
Max Gust Speed -    
Visibility 9 miles    
Events      
Averages and records for this station are not official NWS values.
T = Trace of Precipitation, MM = Missing Value Source: NWS Daily Summary

Daily Weather History Graph

Daily Weather History Graph

Search for Another Location

Airport or City:

Trip Planner

Search our weather history database for the weather conditions in past years. The results will help you decide how hot, cold, wet, or windy it might be!

Date:

Astronomy

Dec. 15, 2010 Rise Set
Actual Time 7:15 AM CST 4:28 PM CST
Civil Twilight 6:44 AM CST 4:59 PM CST
Nautical Twilight 6:09 AM CST 5:34 PM CST
Astronomical Twilight 5:35 AM CST 6:07 PM CST
Moon 12:35 PM CST (12/15) 1:30 AM CST (12/15)
Length of Visible Light 10h 15m
Length of Day
9h 12m
Waxing Gibbous, 70% of the Moon is Illuminated
Dec 15
Waxing Gibbous
Dec 21
Full
Dec 27
Last Quarter
Jan 4
New
Jan 12
First Quarter

Hourly Weather History & Observations

Time (CST) Temp. Windchill Dew Point Humidity Pressure Visibility Wind Dir Wind Speed Gust Speed Precip Events Conditions
12:05 AM 3.0 °F - -0.8 °F 84% 30.14 in 7.0 mi Calm Calm - N/A   Clear
12:26 AM -0.0 °F - -4.2 °F 83% 30.14 in 10.0 mi Calm Calm - N/A   Clear
12:45 AM -0.4 °F - -4.7 °F 82% 30.13 in 10.0 mi Calm Calm - N/A   Clear
1:05 AM 1.4 °F - -2.6 °F 83% 30.14 in 10.0 mi Calm Calm - N/A   Clear
1:25 AM 1.8 °F - -2.2 °F 83% 30.14 in 10.0 mi Calm Calm - N/A   Clear
1:45 AM -0.2 °F - -4.4 °F 83% 30.16 in 10.0 mi Calm Calm - N/A   Clear
2:05 AM 0.3 °F - -4.0 °F 82% 30.16 in 10.0 mi Calm Calm - N/A   Clear
2:25 AM -0.0 °F - -4.2 °F 83% 30.15 in 10.0 mi Calm Calm - N/A   Clear
2:45 AM 1.4 °F - -2.7 °F 83% 30.13 in 10.0 mi Calm Calm - N/A   Clear
3:06 AM 1.0 °F -8.7 °F -3.3 °F 82% 30.13 in 10.0 mi ENE 4.6 mph - N/A   Clear
3:25 AM 0.5 °F - -3.8 °F 82% 30.13 in 10.0 mi Calm Calm - N/A   Clear
3:45 AM 1.4 °F - -2.2 °F 85% 30.13 in 10.0 mi Calm Calm - N/A   Scattered Clouds
4:05 AM 3.2 °F - -2.2 °F 78% 30.13 in 10.0 mi Calm Calm - N/A   Scattered Clouds
4:25 AM 2.3 °F -7.2 °F -2.0 °F 82% 30.12 in 10.0 mi East 4.6 mph - N/A   Clear
4:45 AM 3.0 °F - -1.3 °F 82% 30.11 in 10.0 mi Calm Calm - N/A   Clear
5:05 AM 2.5 °F -5.0 °F -1.7 °F 83% 30.10 in 10.0 mi East 3.5 mph - N/A   Clear
5:25 AM 3.2 °F -4.2 °F -0.6 °F 84% 30.10 in 5.0 mi East 3.5 mph - N/A   Scattered Clouds
5:45 AM 3.2 °F - -0.6 °F 84% 30.10 in 10.0 mi Calm Calm - N/A   Scattered Clouds
6:05 AM 3.9 °F -3.4 °F 0.1 °F 84% 30.10 in 10.0 mi ESE 3.5 mph - N/A   Clear
6:25 AM 4.1 °F -3.2 °F 0.5 °F 85% 30.09 in 10.0 mi East 3.5 mph - N/A   Clear
6:46 AM 4.5 °F - 0.7 °F 84% 30.08 in 10.0 mi Calm Calm - N/A   Clear
7:05 AM 3.6 °F -3.8 °F -0.2 °F 84% 30.08 in 7.0 mi ENE 3.5 mph - N/A   Scattered Clouds
7:25 AM 4.1 °F - 0.3 °F 84% 30.08 in 7.0 mi Calm Calm - N/A   Mostly Cloudy
7:45 AM 4.1 °F -5.1 °F 0.1 °F 84% 30.08 in 4.0 mi East 4.6 mph - N/A   Mostly Cloudy
8:05 AM 5.7 °F -4.8 °F 2.1 °F 85% 30.07 in 7.0 mi East 5.8 mph - N/A   Mostly Cloudy
8:25 AM 7.2 °F -3.0 °F 3.7 °F 86% 30.06 in 7.0 mi East 5.8 mph - N/A   Scattered Clouds
8:45 AM 8.4 °F -0.1 °F 5.0 °F 86% 30.07 in 7.0 mi ESE 4.6 mph - N/A   Mostly Cloudy
9:05 AM 9.7 °F 1.4 °F 6.3 °F 86% 30.06 in 5.0 mi East 4.6 mph - N/A   Overcast
9:25 AM 10.4 °F 4.0 °F 7.2 °F 87% 30.06 in 5.0 mi East 3.5 mph - N/A   Overcast
9:45 AM 12.6 °F 2.2 °F 8.2 °F 83% 30.06 in 10.0 mi ESE 6.9 mph - N/A   Overcast
10:05 AM 14.0 °F 5.1 °F 8.6 °F 79% 30.06 in 10.0 mi ESE 5.8 mph - N/A   Overcast
10:26 AM 15.4 °F 8.1 °F 7.7 °F 71% 30.05 in 10.0 mi ESE 4.6 mph - N/A   Overcast
10:45 AM 16.5 °F - 8.4 °F 70% 30.05 in 10.0 mi Calm Calm - N/A   Overcast
11:05 AM 17.4 °F - 9.0 °F 69% 30.04 in 10.0 mi Calm Calm - N/A   Overcast
11:25 AM 18.1 °F - 9.0 °F 67% 30.04 in 10.0 mi Calm Calm - N/A   Overcast
11:45 AM 18.3 °F - 9.3 °F 68% 30.03 in 10.0 mi Calm Calm - N/A   Overcast
12:05 PM 19.9 °F - 9.5 °F 64% 30.01 in 10.0 mi Calm Calm - N/A   Overcast
12:25 PM 20.3 °F 15.4 °F 9.5 °F 63% 30.00 in 10.0 mi East 3.5 mph - N/A   Overcast
12:45 PM 21.2 °F 14.9 °F 10.4 °F 63% 29.99 in 10.0 mi East 4.6 mph - N/A   Overcast
1:05 PM 21.2 °F 13.6 °F 10.4 °F 63% 30.00 in 10.0 mi East 5.8 mph - N/A   Overcast
1:25 PM 21.7 °F 12.3 °F 11.7 °F 65% 29.99 in 10.0 mi East 8.1 mph - N/A   Overcast
1:45 PM 21.7 °F 12.3 °F 11.3 °F 64% 29.98 in 10.0 mi East 8.1 mph - N/A   Overcast
2:06 PM 21.7 °F 12.3 °F 10.9 °F 63% 29.98 in 10.0 mi East 8.1 mph - N/A   Overcast
2:25 PM 22.5 °F 12.4 °F 10.9 °F 61% 29.98 in 10.0 mi East 9.2 mph - N/A   Overcast
2:45 PM 22.6 °F 13.4 °F 9.1 °F 56% 29.97 in 10.0 mi East 8.1 mph - N/A   Overcast
3:05 PM 22.8 °F 12.9 °F 11.5 °F 62% 29.96 in 10.0 mi East 9.2 mph - N/A   Overcast
3:25 PM 22.8 °F 11.5 °F 9.3 °F 56% 29.95 in 10.0 mi East 11.5 mph - N/A   Overcast
3:45 PM 22.8 °F 12.9 °F 9.3 °F 56% 29.93 in 10.0 mi East 9.2 mph - N/A   Mostly Cloudy
4:05 PM 21.7 °F 10.8 °F 13.1 °F 69% 29.93 in 10.0 mi East 10.4 mph - N/A   Scattered Clouds
4:25 PM 21.6 °F 11.3 °F 13.1 °F 70% 29.92 in 10.0 mi East 9.2 mph - N/A   Overcast
4:45 PM 21.6 °F 10.6 °F 12.4 °F 68% 29.92 in 10.0 mi East 10.4 mph - N/A   Overcast
5:05 PM 21.2 °F 10.9 °F 14.0 °F 74% 29.93 in 10.0 mi East 9.2 mph - N/A   Overcast
5:25 PM 21.2 °F 11.7 °F 13.8 °F 73% 29.93 in 10.0 mi East 8.1 mph - N/A   Overcast
5:46 PM 21.7 °F 11.5 °F 13.8 °F 72% 29.92 in 10.0 mi East 9.2 mph - N/A   Overcast
6:05 PM 22.1 °F 12.8 °F 13.3 °F 69% 29.92 in 10.0 mi East 8.1 mph - N/A   Overcast
6:25 PM 22.5 °F 11.7 °F 12.2 °F 65% 29.91 in 10.0 mi East 10.4 mph - N/A   Overcast
6:45 PM 22.6 °F 11.9 °F 12.2 °F 64% 29.92 in 10.0 mi ESE 10.4 mph - N/A   Overcast
7:05 PM 22.5 °F 12.4 °F 13.1 °F 67% 29.91 in 10.0 mi ESE 9.2 mph - N/A   Overcast
7:26 PM 22.5 °F 11.7 °F 13.8 °F 69% 29.90 in 10.0 mi ESE 10.4 mph - N/A   Overcast
7:45 PM 22.1 °F 12.0 °F 13.8 °F 70% 29.90 in 10.0 mi ESE 9.2 mph - N/A   Overcast
8:05 PM 22.1 °F 14.7 °F 14.7 °F 73% 29.90 in 10.0 mi East 5.8 mph - N/A   Overcast
8:25 PM 21.7 °F 12.3 °F 14.7 °F 74% 29.91 in 7.0 mi East 8.1 mph - N/A   Overcast
8:45 PM 21.2 °F 12.6 °F 15.8 °F 80% 29.90 in 2.0 mi East 6.9 mph - N/A   Overcast
9:05 PM 21.0 °F 10.6 °F 17.1 °F 85% 29.88 in 2.0 mi East 9.2 mph - N/A   Overcast
9:25 PM 20.8 °F 11.2 °F 17.4 °F 87% 29.88 in 1.5 mi East 8.1 mph - N/A   Overcast
9:45 PM 20.7 °F 11.0 °F 17.6 °F 88% 29.88 in 1.0 mi East 8.1 mph - N/A   Overcast
10:05 PM 20.7 °F 13.0 °F 17.6 °F 88% 29.88 in 1.5 mi East 5.8 mph - N/A   Overcast
10:25 PM 20.5 °F 10.0 °F 17.6 °F 89% 29.86 in 1.5 mi ENE 9.2 mph - 0.01 in   Overcast
10:45 PM 20.7 °F 10.2 °F 17.6 °F 88% 29.85 in 2.5 mi East 9.2 mph - 0.01 in   Overcast
11:05 PM 20.7 °F 10.2 °F 17.6 °F 88% 29.83 in 2.5 mi East 9.2 mph - N/A   Overcast
11:25 PM 20.5 °F 10.8 °F 17.6 °F 89% 29.84 in 2.5 mi ENE 8.1 mph - N/A   Overcast
11:45 PM 20.3 °F 9.8 °F 17.4 °F 89% 29.83 in 1.8 mi East 9.2 mph - N/A   Overcast